Time,TemperatureF,DewpointF,PressureIn,WindDirection,WindDirectionDegrees,WindSpeedMPH,WindSpeedGustMPH,Humidity,HourlyPrecipIn,Conditions,Clouds,dailyrainin,SoftwareType,DateUTC
2013-08-28 00:09:00,60.8,60.0,29.82,WSW,244,0.0,0.0,97,0.00,,,0.00,weatherlink.com 1.10,2013-08-28 04:09:00,
2013-08-28 00:24:00,61.0,60.0,29.82,WSW,244,0.0,0.0,97,0.00,,,0.00,weatherlink.com 1.10,2013-08-28 04:24:00,
2013-08-28 00:39:00,61.4,61.0,29.82,WSW,244,0.0,0.0,98,0.00,,,0.00,weatherlink.com 1.10,2013-08-28 04:39:00,
2013-08-28 00:54:00,61.1,60.0,29.82,WSW,244,0.0,0.0,97,0.00,,,0.00,weatherlink.com 1.10,2013-08-28 04:54:00,
2013-08-28 01:09:00,60.9,60.0,29.82,WSW,244,0.0,0.0,98,0.00,,,0.00,weatherlink.com 1.10,2013-08-28 05:09:00,
2013-08-28 01:24:00,60.8,60.0,29.82,WSW,244,0.0,0.0,98,0.00,,,0.00,weatherlink.com 1.10,2013-08-28 05:24:00,
2013-08-28 01:39:00,60.7,60.0,29.82,WSW,244,0.0,0.0,98,0.00,,,0.00,weatherlink.com 1.10,2013-08-28 05:39:00,
2013-08-28 01:54:00,60.3,60.0,29.82,WSW,244,0.0,0.0,98,0.00,,,0.00,weatherlink.com 1.10,2013-08-28 05:54:00,
2013-08-28 02:09:00,60.4,60.0,29.82,WSW,244,0.0,0.0,98,0.00,,,0.00,weatherlink.com 1.10,2013-08-28 06:09:00,
2013-08-28 02:24:00,60.5,60.0,29.82,WSW,244,0.0,0.0,98,0.00,,,0.00,weatherlink.com 1.10,2013-08-28 06:24:00,
2013-08-28 02:39:00,60.5,60.0,29.82,WSW,244,0.0,0.0,98,0.00,,,0.00,weatherlink.com 1.10,2013-08-28 06:39:00,
2013-08-28 02:54:00,60.8,60.0,29.82,WSW,244,0.0,0.0,98,0.00,,,0.00,weatherlink.com 1.10,2013-08-28 06:54:00,
2013-08-28 03:09:00,60.8,60.0,29.82,WSW,244,0.0,0.0,98,0.00,,,0.00,weatherlink.com 1.10,2013-08-28 07:09:00,
2013-08-28 03:24:00,61.0,61.0,29.82,WSW,244,0.0,0.0,98,0.00,,,0.00,weatherlink.com 1.10,2013-08-28 07:24:00,
2013-08-28 03:39:00,61.1,61.0,29.82,WSW,244,0.0,0.0,98,0.00,,,0.00,weatherlink.com 1.10,2013-08-28 07:39:00,
2013-08-28 03:54:00,61.4,61.0,29.82,WSW,244,0.0,0.0,98,0.00,,,0.00,weatherlink.com 1.10,2013-08-28 07:54:00,
2013-08-28 04:09:00,61.8,61.0,29.82,WSW,244,0.0,0.0,98,0.00,,,0.00,weatherlink.com 1.10,2013-08-28 08:09:00,
2013-08-28 04:24:00,62.0,62.0,29.82,WSW,244,0.0,0.0,98,0.00,,,0.00,weatherlink.com 1.10,2013-08-28 08:24:00,
2013-08-28 04:39:00,62.1,62.0,29.82,WSW,244,1.0,2.0,98,0.00,,,0.00,weatherlink.com 1.10,2013-08-28 08:39:00,
2013-08-28 04:54:00,62.1,62.0,29.82,WSW,244,0.0,0.0,98,0.00,,,0.00,weatherlink.com 1.10,2013-08-28 08:54:00,
2013-08-28 05:09:00,62.2,62.0,29.82,WSW,244,0.0,1.0,98,0.00,,,0.00,weatherlink.com 1.10,2013-08-28 09:09:00,
2013-08-28 05:24:00,62.1,62.0,29.82,WSW,244,0.0,0.0,98,0.00,,,0.00,weatherlink.com 1.10,2013-08-28 09:24:00,
2013-08-28 05:39:00,62.0,62.0,29.82,WSW,244,0.0,0.0,98,0.00,,,0.00,weatherlink.com 1.10,2013-08-28 09:39:00,
2013-08-28 05:54:00,62.2,62.0,29.82,WSW,244,0.0,0.0,98,0.00,,,0.00,weatherlink.com 1.10,2013-08-28 09:54:00,
2013-08-28 06:09:00,62.3,62.0,29.82,WSW,244,0.0,0.0,99,0.00,,,0.00,weatherlink.com 1.10,2013-08-28 10:09:00,
2013-08-28 06:24:00,62.3,62.0,29.82,WSW,244,0.0,0.0,99,0.00,,,0.00,weatherlink.com 1.10,2013-08-28 10:24:00,
2013-08-28 06:39:00,62.5,62.0,29.82,WSW,244,0.0,1.0,99,0.00,,,0.00,weatherlink.com 1.10,2013-08-28 10:39:00,
2013-08-28 06:54:00,62.7,62.0,29.82,NE,37,2.0,4.0,98,0.00,,,0.00,weatherlink.com 1.10,2013-08-28 10:54:00,
2013-08-28 07:09:00,62.7,62.0,29.83,NE,37,0.0,2.0,98,0.00,,,0.00,weatherlink.com 1.10,2013-08-28 11:09:00,
2013-08-28 07:24:00,62.9,62.0,29.83,NE,37,0.0,1.0,98,0.00,,,0.00,weatherlink.com 1.10,2013-08-28 11:24:00,
2013-08-28 07:39:00,62.6,62.0,29.84,NE,37,1.0,4.0,98,0.00,,,0.00,weatherlink.com 1.10,2013-08-28 11:39:00,
2013-08-28 07:54:00,62.6,62.0,29.84,NE,37,0.0,2.0,98,0.00,,,0.00,weatherlink.com 1.10,2013-08-28 11:54:00,
2013-08-28 08:09:00,62.5,62.0,29.84,South,169,0.0,3.0,98,0.00,,,0.00,weatherlink.com 1.10,2013-08-28 12:09:00,
2013-08-28 08:25:00,61.7,61.0,29.85,South,186,2.0,5.0,98,0.00,,,0.00,weatherlink.com 1.10,2013-08-28 12:25:00,
2013-08-28 08:40:00,61.6,61.0,29.85,SSW,204,2.0,5.0,98,0.00,,,0.00,weatherlink.com 1.10,2013-08-28 12:40:00,
2013-08-28 08:55:00,61.6,61.0,29.85,SSW,204,3.0,4.0,98,0.00,,,0.00,weatherlink.com 1.10,2013-08-28 12:55:00,
2013-08-28 09:10:00,61.7,61.0,29.85,SW,221,2.0,5.0,98,0.00,,,0.00,weatherlink.com 1.10,2013-08-28 13:10:00,
2013-08-28 09:25:00,62.1,62.0,29.86,SW,234,2.0,2.0,98,0.00,,,0.00,weatherlink.com 1.10,2013-08-28 13:25:00,
2013-08-28 09:40:00,63.2,63.0,29.86,NNE,26,1.0,2.0,98,0.00,,,0.00,weatherlink.com 1.10,2013-08-28 13:40:00,
2013-08-28 09:55:00,65.8,65.0,29.86,South,181,0.0,3.0,96,0.00,,,0.00,weatherlink.com 1.10,2013-08-28 13:55:00,
2013-08-28 10:10:00,66.3,64.0,29.86,NE,45,5.0,6.0,91,0.00,,,0.00,weatherlink.com 1.10,2013-08-28 14:10:00,
2013-08-28 10:25:00,65.6,63.0,29.86,NE,38,4.0,6.0,92,0.00,,,0.00,weatherlink.com 1.10,2013-08-28 14:25:00,
2013-08-28 10:40:00,65.1,63.0,29.86,NE,38,4.0,6.0,92,0.00,,,0.00,weatherlink.com 1.10,2013-08-28 14:40:00,
2013-08-28 10:55:00,66.2,64.0,29.86,NE,38,2.0,7.0,93,0.00,,,0.00,weatherlink.com 1.10,2013-08-28 14:55:00,
2013-08-28 11:10:00,68.8,66.0,29.86,WSW,252,2.0,7.0,89,0.00,,,0.00,weatherlink.com 1.10,2013-08-28 15:10:00,
2013-08-28 11:25:00,67.3,64.0,29.86,NE,39,6.0,8.0,89,0.00,,,0.00,weatherlink.com 1.10,2013-08-28 15:25:00,
2013-08-28 11:40:00,67.5,64.0,29.86,NE,46,5.0,7.0,89,0.00,,,0.00,weatherlink.com 1.10,2013-08-28 15:40:00,
2013-08-28 11:55:00,68.1,65.0,29.86,NE,52,4.0,5.0,88,0.00,,,0.00,weatherlink.com 1.10,2013-08-28 15:55:00,
2013-08-28 12:10:00,70.8,66.0,29.85,NE,42,3.0,5.0,84,0.00,,,0.00,weatherlink.com 1.10,2013-08-28 16:10:00,
2013-08-28 12:25:00,70.7,65.0,29.84,NE,46,6.0,6.0,83,0.00,,,0.00,weatherlink.com 1.10,2013-08-28 16:25:00,
2013-08-28 12:55:00,71.8,66.0,29.83,NE,39,4.0,6.0,81,0.00,,,0.00,weatherlink.com 1.10,2013-08-28 16:55:00,
2013-08-28 13:10:00,73.7,67.0,29.83,NE,34,3.0,7.0,79,0.00,,,0.00,weatherlink.com 1.10,2013-08-28 17:10:00,
2013-08-28 13:25:00,74.0,68.0,29.82,NE,46,4.0,6.0,80,0.00,,,0.00,weatherlink.com 1.10,2013-08-28 17:25:00,
2013-08-28 13:40:00,76.5,68.0,29.82,ENE,60,3.0,6.0,74,0.00,,,0.00,weatherlink.com 1.10,2013-08-28 17:40:00,
2013-08-28 13:55:00,75.6,68.0,29.82,WNW,286,3.0,5.0,78,0.00,,,0.00,weatherlink.com 1.10,2013-08-28 17:55:00,
2013-08-28 14:10:00,75.1,67.0,29.81,NE,53,4.0,5.0,77,0.00,,,0.00,weatherlink.com 1.10,2013-08-28 18:10:00,
2013-08-28 14:25:00,76.2,67.0,29.81,SSW,203,2.0,6.0,74,0.00,,,0.00,weatherlink.com 1.10,2013-08-28 18:25:00,
2013-08-28 14:41:00,77.2,68.0,29.81,NE,44,0.0,4.0,73,0.00,,,0.00,weatherlink.com 1.10,2013-08-28 18:41:00,
2013-08-28 14:56:00,76.4,68.0,29.82,WSW,247,0.0,5.0,74,0.00,,,0.00,weatherlink.com 1.10,2013-08-28 18:56:00,
2013-08-28 15:11:00,75.9,68.0,29.82,West,279,1.0,4.0,76,0.00,,,0.00,weatherlink.com 1.10,2013-08-28 19:11:00,
2013-08-28 15:41:00,73.0,66.0,29.82,NE,46,3.0,5.0,79,0.00,,,0.00,weatherlink.com 1.10,2013-08-28 19:41:00,
2013-08-28 15:56:00,72.5,66.0,29.82,SE,132,1.0,4.0,80,0.00,,,0.00,weatherlink.com 1.10,2013-08-28 19:56:00,
2013-08-28 16:11:00,73.7,66.0,29.82,SW,236,0.0,3.0,77,0.00,,,0.00,weatherlink.com 1.10,2013-08-28 20:11:00,
2013-08-28 16:26:00,71.9,65.0,29.83,SSW,210,0.0,5.0,80,0.00,,,0.00,weatherlink.com 1.10,2013-08-28 20:26:00,
2013-08-28 16:41:00,72.5,66.0,29.83,NE,50,1.0,3.0,79,0.00,,,0.00,weatherlink.com 1.10,2013-08-28 20:41:00,
2013-08-28 16:56:00,71.6,66.0,29.83,NE,52,0.0,4.0,81,0.00,,,0.00,weatherlink.com 1.10,2013-08-28 20:56:00,
2013-08-28 17:11:00,71.1,66.0,29.83,SE,140,0.0,3.0,83,0.00,,,0.00,weatherlink.com 1.10,2013-08-28 21:11:00,
2013-08-28 17:26:00,70.6,66.0,29.83,SSW,199,2.0,4.0,84,0.00,,,0.00,weatherlink.com 1.10,2013-08-28 21:26:00,
2013-08-28 17:41:00,70.3,65.0,29.84,WNW,291,2.0,3.0,84,0.00,,,0.00,weatherlink.com 1.10,2013-08-28 21:41:00,
2013-08-28 17:56:00,68.0,64.0,29.85,South,184,2.0,3.0,87,0.00,,,0.00,weatherlink.com 1.10,2013-08-28 21:56:00,
2013-08-28 18:11:00,66.9,64.0,29.85,SSW,194,3.0,4.0,89,0.00,,,0.00,weatherlink.com 1.10,2013-08-28 22:11:00,
2013-08-28 18:26:00,66.4,64.0,29.86,SSW,194,1.0,3.0,91,0.00,,,0.00,weatherlink.com 1.10,2013-08-28 22:26:00,
2013-08-28 18:41:00,66.1,64.0,29.87,SSW,193,0.0,2.0,91,0.00,,,0.00,weatherlink.com 1.10,2013-08-28 22:41:00,
2013-08-28 18:56:00,66.2,64.0,29.89,SSW,193,0.0,0.0,92,0.00,,,0.00,weatherlink.com 1.10,2013-08-28 22:56:00,
2013-08-28 19:11:00,67.7,65.0,29.91,North,355,5.0,10.0,92,0.02,,,0.02,weatherlink.com 1.10,2013-08-28 23:11:00,
2013-08-28 19:26:00,68.0,66.0,29.91,NNW,338,5.0,9.0,93,0.06,,,0.06,weatherlink.com 1.10,2013-08-28 23:26:00,
2013-08-28 19:41:00,68.1,66.0,29.91,NNW,339,2.0,5.0,93,0.07,,,0.07,weatherlink.com 1.10,2013-08-28 23:41:00,
2013-08-28 19:56:00,67.4,66.0,29.92,NW,313,0.0,1.0,94,0.09,,,0.09,weatherlink.com 1.10,2013-08-28 23:56:00,
2013-08-28 20:11:00,67.2,66.0,29.91,NNW,328,0.0,4.0,95,0.09,,,0.11,weatherlink.com 1.10,2013-08-29 00:11:00,
2013-08-28 20:26:00,67.7,67.0,29.91,NNW,328,4.0,4.0,96,0.07,,,0.13,weatherlink.com 1.10,2013-08-29 00:26:00,
2013-08-28 20:41:00,67.4,66.0,29.90,NNE,15,2.0,3.0,95,0.07,,,0.14,weatherlink.com 1.10,2013-08-29 00:41:00,
2013-08-28 20:56:00,67.5,66.0,29.90,North,355,3.0,4.0,95,0.05,,,0.14,weatherlink.com 1.10,2013-08-29 00:56:00,
2013-08-28 21:11:00,67.6,66.0,29.89,NNW,338,2.0,8.0,95,0.03,,,0.14,weatherlink.com 1.10,2013-08-29 01:11:00,
2013-08-28 21:26:00,67.1,65.0,29.89,NNW,330,0.0,2.0,94,0.01,,,0.14,weatherlink.com 1.10,2013-08-29 01:26:00,
2013-08-28 21:41:00,66.2,65.0,29.90,SW,217,0.0,3.0,94,0.00,,,0.14,weatherlink.com 1.10,2013-08-29 01:41:00,
2013-08-28 21:56:00,65.6,64.0,29.90,SW,217,0.0,2.0,95,0.00,,,0.14,weatherlink.com 1.10,2013-08-29 01:56:00,
2013-08-28 22:11:00,65.3,64.0,29.91,SW,217,0.0,0.0,95,0.00,,,0.14,weatherlink.com 1.10,2013-08-29 02:11:00,
2013-08-28 22:26:00,65.6,65.0,29.91,NNW,336,0.0,4.0,96,0.00,,,0.14,weatherlink.com 1.10,2013-08-29 02:26:00,
2013-08-28 22:41:00,66.2,65.0,29.91,NNW,345,7.0,8.0,96,0.00,,,0.14,weatherlink.com 1.10,2013-08-29 02:41:00,
2013-08-28 22:56:00,66.4,65.0,29.92,North,351,8.0,9.0,95,0.00,,,0.14,weatherlink.com 1.10,2013-08-29 02:56:00,
2013-08-28 23:11:00,66.3,65.0,29.91,NNW,342,9.0,10.0,94,0.00,,,0.14,weatherlink.com 1.10,2013-08-29 03:11:00,
2013-08-28 23:26:00,66.3,65.0,29.92,NNW,348,7.0,10.0,94,0.00,,,0.14,weatherlink.com 1.10,2013-08-29 03:26:00,
2013-08-28 23:41:00,65.8,64.0,29.92,North,360,5.0,8.0,94,0.00,,,0.14,weatherlink.com 1.10,2013-08-29 03:41:00,
2013-08-28 23:56:00,65.5,64.0,29.93,NW,323,7.0,7.0,94,0.00,,,0.14,weatherlink.com 1.10,2013-08-29 03:56:00,